TimeEDT,TemperatureF,Dew PointF,Humidity,Sea Level PressureIn,VisibilityMPH,Wind Direction,Wind SpeedMPH,Gust SpeedMPH,PrecipitationIn,Events,Conditions,WindDirDegrees,DateUTC
12:53 AM,61.0,57.9,90,30.16,5.0,Calm,Calm,-,N/A,,Clear,0,2012-09-27 04:53:00
1:53 AM,61.0,59.0,93,30.17,4.0,SSW,3.5,-,N/A,,Clear,210,2012-09-27 05:53:00
2:53 AM,59.0,57.0,93,30.16,4.0,Calm,Calm,-,N/A,,Clear,0,2012-09-27 06:53:00
3:30 AM,57.2,55.4,94,30.17,2.5,Calm,Calm,-,N/A,,Clear,0,2012-09-27 07:30:00
3:39 AM,57.2,55.4,94,30.17,3.0,Calm,Calm,-,N/A,,Clear,0,2012-09-27 07:39:00
3:53 AM,57.9,55.9,93,30.14,2.5,Calm,Calm,-,N/A,,Clear,0,2012-09-27 07:53:00
4:11 AM,57.2,55.4,94,30.16,4.0,Calm,Calm,-,N/A,,Clear,0,2012-09-27 08:11:00
4:53 AM,57.9,55.9,93,30.13,3.0,Calm,Calm,-,N/A,,Clear,0,2012-09-27 08:53:00
5:07 AM,57.2,55.4,94,30.16,2.5,Calm,Calm,-,N/A,,Clear,0,2012-09-27 09:07:00
5:14 AM,57.2,55.4,94,30.16,4.0,Calm,Calm,-,N/A,,Clear,0,2012-09-27 09:14:00
5:24 AM,57.2,55.4,94,30.16,1.8,Calm,Calm,-,N/A,,Clear,0,2012-09-27 09:24:00
5:31 AM,57.2,55.4,94,30.16,3.0,Calm,Calm,-,N/A,,Clear,0,2012-09-27 09:31:00
5:53 AM,55.9,54.0,93,30.14,3.0,Calm,Calm,-,N/A,,Clear,0,2012-09-27 09:53:00
6:53 AM,55.9,54.0,93,30.15,3.0,Calm,Calm,-,N/A,,Clear,0,2012-09-27 10:53:00
7:01 AM,55.4,53.6,94,30.18,2.5,Calm,Calm,-,N/A,,Clear,0,2012-09-27 11:01:00
7:20 AM,55.4,53.6,94,30.18,1.8,SW,3.5,-,N/A,,Clear,220,2012-09-27 11:20:00
7:24 AM,55.4,53.6,94,30.18,1.0,Calm,Calm,-,N/A,,Mist,0,2012-09-27 11:24:00
7:34 AM,57.2,55.4,94,30.19,2.5,Calm,Calm,-,N/A,,Scattered Clouds,0,2012-09-27 11:34:00
7:53 AM,55.9,54.0,93,30.17,1.8,Calm,Calm,-,N/A,,Scattered Clouds,0,2012-09-27 11:53:00
8:47 AM,60.8,59.0,94,30.19,3.0,SW,3.5,-,N/A,,Clear,230,2012-09-27 12:47:00
8:53 AM,61.0,59.0,93,30.17,5.0,SW,3.5,-,N/A,,Clear,220,2012-09-27 12:53:00
9:53 AM,69.1,61.0,75,30.18,10.0,Variable,3.5,-,N/A,,Clear,0,2012-09-27 13:53:00
10:53 AM,75.0,62.1,64,30.18,10.0,WSW,6.9,-,N/A,,Clear,250,2012-09-27 14:53:00
11:53 AM,79.0,62.1,56,30.15,10.0,Variable,3.5,-,N/A,,Clear,0,2012-09-27 15:53:00
12:53 PM,82.9,61.0,47,30.13,10.0,Calm,Calm,-,N/A,,Clear,0,2012-09-27 16:53:00
1:53 PM,86.0,63.0,46,30.10,10.0,Calm,Calm,-,N/A,,Clear,0,2012-09-27 17:53:00
2:53 PM,87.1,60.1,40,30.09,10.0,Variable,3.5,-,N/A,,Scattered Clouds,0,2012-09-27 18:53:00
3:53 PM,87.1,59.0,39,30.06,10.0,Calm,Calm,-,N/A,,Clear,0,2012-09-27 19:53:00
4:53 PM,84.9,61.0,44,30.06,10.0,SSW,3.5,-,N/A,,Clear,200,2012-09-27 20:53:00
5:53 PM,82.9,60.1,46,30.06,10.0,South,3.5,-,N/A,,Partly Cloudy,180,2012-09-27 21:53:00
6:53 PM,78.1,62.1,58,30.06,10.0,South,3.5,-,N/A,,Clear,170,2012-09-27 22:53:00
7:53 PM,75.0,61.0,62,30.08,10.0,South,4.6,-,N/A,,Clear,190,2012-09-27 23:53:00
8:53 PM,72.0,60.1,66,30.09,10.0,South,4.6,-,N/A,,Clear,190,2012-09-28 00:53:00
9:53 PM,68.0,59.0,73,30.09,10.0,SSW,3.5,-,N/A,,Clear,200,2012-09-28 01:53:00
10:53 PM,64.0,57.9,80,30.08,10.0,SSW,3.5,-,N/A,,Clear,210,2012-09-28 02:53:00
11:53 PM,64.9,57.9,78,30.09,10.0,SSW,3.5,-,N/A,,Clear,200,2012-09-28 03:53:00